Volver al catálogo

CZ-2C DEB

ActivoSSO
NORAD 67587·DEBRIS·🇨🇳 China

Lanzado Jan 15, 2026 desde Jiuquan Satellite Launch Center

Loading…

Próximos Pases (próximas 24 horas)

TLE

ActualizadoSource: Space-Track

Época: Sep 14, 2026, 11:55 UTC

1 67587U 26009D   26257.49671037  .00119768  00000-0  26024-2 0  9997
2 67587  97.6472 337.7671 0056151 100.3122 260.4461 15.42213664 36928

Sigue CZ-2C DEB en tiempo real con AllMySat

Download on the App Store